[[{"header":{"parameterUnit":"m.s-1","parameterCategory":1,"la1":30.2991,"la2":30.254,"lo1":-89.0895,"lo2":-89.0444,"dy":0.0017,"dx":0.0017,"nx":28,"ny":28,"refTime":"2025-11-09T03:00:00:Z","depth":0,"parameterNumber":2,"parameterNumberName":"U-component_of_WINDS"},"data":[0,0,0,0,0,0,0,0,0,0,0,0,0,0,0,0,0,0,0,0,0,0,0,0,0,0,0,0,0,0,0,0,0,0,0,0,0,0,0,0,0,0,0,0,0,0,0,0,0,0,0,0,0,0,0,0,0,0,3.3447,3.3448,0,3.3454,3.3454,3.3454,3.3417,3.3416,3.3415,3.3414,3.3419,3.342,3.3422,0,0,0,0,0,0,0,0,0,0,0,0,0,3.3405,3.3406,3.3447,3.3448,3.3448,3.3454,3.3454,3.3454,3.3417,3.3416,3.3414,3.3413,3.3419,3.342,3.3422,0,0,0,0,0,0,0,0,0,0,0,0,0,3.3418,3.3406,3.3447,3.343,3.3429,3.3454,3.3454,3.3454,3.3417,3.3416,3.3414,3.3413,3.3419,3.342,3.3422,3.3464,0,0,3.3427,3.3428,0,0,0,0,0,0,0,0,3.3417,3.342,3.3433,3.3431,3.343,3.3433,3.3441,3.3457,3.3418,3.3422,3.3414,3.3412,3.3425,3.3426,3.3431,3.3464,3.3464,3.3427,3.3428,3.3429,3.3429,0,0,0,0,0,0,0,3.3417,3.3419,3.345,3.3433,3.3431,3.3422,3.3422,3.3444,3.3432,3.3421,3.3418,3.342,3.3424,3.3429,3.3431,3.3464,3.3427,3.3429,3.343,3.343,3.3534,3.3535,0,0,0,0,0,0,3.3418,3.3419,3.345,3.345,3.342,3.3424,3.3424,3.3433,3.3432,3.343,3.3421,3.3418,3.3427,3.3429,3.3431,3.348,3.3429,3.343,3.3431,3.3532,3.3534,3.3536,0,0,0,0,0,0,3.3417,3.3421,3.3449,3.3434,3.3437,3.3427,3.3437,3.3434,3.3439,3.3432,3.3429,3.3428,3.3426,3.3428,3.3456,3.348,3.3431,3.3433,3.353,3.3533,3.3535,3.3579,0,0,0,0,0,0,3.3416,3.3421,3.3436,3.3434,3.3438,3.3475,3.3438,3.3436,3.3443,3.3439,3.3438,3.3436,3.3425,3.3454,3.3458,3.3481,3.3434,3.3528,3.3531,3.3534,3.3576,3.3583,3.3589,0,0,0,0,0,3.3415,3.3448,3.3437,3.3441,3.3457,3.3476,3.3478,3.3464,3.3445,3.346,3.3456,3.3436,3.3477,3.3457,3.3461,3.3485,3.3526,3.353,3.3534,3.3572,3.3582,3.3589,0,0,0,0,0,0,3.3452,3.3447,3.3435,3.3469,3.3474,3.347,3.3489,3.3474,3.3484,3.3479,3.3462,3.3462,3.3493,3.3492,3.347,3.3527,3.3498,3.3503,3.3526,3.3534,3.3541,3.354,3.3436,0,0,0,0,0,3.3465,3.3481,3.3476,3.3506,3.3509,3.3499,3.3507,3.3496,3.35,3.3501,3.3498,3.3502,3.3516,3.3525,3.3537,3.3576,3.3575,3.3595,3.3602,3.3607,3.3611,3.3633,3.3641,3.3549,3.3549,3.3549,0,0,3.349,3.3489,3.35,3.3514,3.3516,3.3533,3.35,3.352,3.3533,3.3504,3.353,3.3529,3.3532,3.3566,3.358,3.3566,3.3637,3.3612,3.3617,3.3618,3.3637,3.3646,3.3654,3.3552,3.3551,3.3551,0,0,3.3545,3.3546,3.3572,3.3575,3.3579,3.3573,3.3579,3.3578,3.3576,3.3603,3.3582,3.3597,3.3621,3.3625,3.363,3.3689,3.3672,3.3693,3.3729,3.375,3.3757,3.3763,3.3785,3.3792,3.3698,3.3698,3.3698,0,3.3576,3.3601,3.3587,3.3608,3.3615,3.3591,3.3618,3.3621,3.3629,3.3634,3.3618,3.3649,3.3649,3.3684,3.3699,3.3703,3.371,3.3693,3.3757,3.3763,3.3769,3.3789,3.3797,3.3701,3.37,3.37,3.37,0,3.3639,3.3657,3.3678,3.3687,3.3696,3.372,3.371,3.3721,3.371,3.3705,3.3733,3.3734,3.3746,3.3754,3.3743,3.3787,3.3778,3.376,3.3731,3.3781,3.3799,3.3807,3.3704,3.3703,3.3703,3.3702,0,0,3.3716,3.3718,3.3726,3.373,3.3734,3.3748,3.3771,3.3784,3.3794,3.3801,3.382,3.3842,3.3826,3.3832,3.3821,3.384,3.3887,3.3819,3.3819,3.3832,3.3937,3.395,3.3959,3.3877,3.3878,3.3879,3.3937,0,3.377,3.3809,3.3799,3.3838,3.3855,3.3834,3.3855,3.386,3.3857,3.3871,3.3867,3.3883,3.386,3.3864,3.3881,3.3878,3.3908,3.3874,3.3894,3.3895,3.3893,3.3969,3.3983,3.4036,3.3944,3.3945,3.3946,0,3.3837,3.3848,3.3889,3.3892,3.3899,3.3917,3.3929,3.3943,3.3948,3.3945,3.3953,3.3939,3.3963,3.3935,3.3967,3.3944,3.3952,3.3952,3.3954,3.3955,3.3923,3.3971,3.4053,3.4061,3.3957,3.3956,3.3955,0,3.3889,3.3914,3.3942,3.3946,3.395,3.3964,3.3966,3.397,3.3979,3.3989,3.3995,3.4008,3.4015,3.4025,3.4016,3.3996,3.405,3.4021,3.4048,3.4049,3.4059,3.4059,3.4143,3.4066,3.4066,3.4066,3.4065,0,3.395,3.3976,3.3966,3.3983,3.4013,3.4001,3.403,3.403,3.4034,3.4051,3.4034,3.4051,3.4038,3.4053,3.4046,3.4075,3.4078,3.4076,3.4074,3.4077,3.4077,3.4081,3.4077,3.4068,3.4067,3.4067,3.4066,0,3.4012,3.4006,3.4036,3.4037,3.4039,3.406,3.4062,3.4078,3.4075,3.4097,3.4102,3.4096,3.4114,3.4106,3.4125,3.412,3.4157,3.4149,3.4155,3.4153,3.418,3.4178,3.427,3.4281,3.4197,3.4198,3.4198,0,3.405,3.407,3.4075,3.4086,3.4089,3.4107,3.4116,3.4106,3.4116,3.4126,3.4141,3.4158,3.417,3.42,3.4197,3.4212,3.4205,3.4236,3.4207,3.421,3.4205,3.4204,3.4206,3.4242,3.4243,3.4244,3.4244,0,3.412,3.4117,3.4131,3.4145,3.4157,3.4168,3.4177,3.4186,3.4177,3.419,3.4208,3.4218,3.4238,3.4255,3.4268,3.427,3.4256,3.4254,3.4261,3.4264,3.4266,3.4265,3.417,3.4251,3.4251,3.425,3.425,3.4249,3.4171,3.4189,3.4195,3.4212,3.4218,3.4228,3.4244,3.4243,3.4258,3.4274,3.4267,3.4289,3.4295,3.4312,3.4316,3.4333,3.432,3.4331,3.4333,3.4335,3.4339,3.4265,3.4335,3.4335,3.4335,3.4335,3.4335,0,3.424,3.4243,3.426,3.4273,3.4287,3.4274,3.4284,3.4296,3.4315,3.4323,3.4336,3.4358,3.4375,3.4375,3.439,3.4404,3.4398,3.4408,3.4407,3.4408,3.4349,3.4342,3.4413,3.4413,3.4413,3.4413,3.4413,3.4413,3.4277,3.4306,3.4304,3.4336,3.4339,3.4361,3.4368,3.4376,3.4382,3.4408,3.4422,3.4422,3.4427,3.4443,3.4458,3.4458,3.4464,3.4477,3.4474,3.4419,3.4412,3.4404,3.4397,3.4479,3.4479,3.4531,3.4532,3.4532]},{"header":{"parameterUnit":"m.s-1","parameterCategory":1,"la1":30.2991,"la2":30.254,"lo1":-89.0895,"lo2":-89.0444,"dy":0.0017,"dx":0.0017,"nx":28,"ny":28,"refTime":"2025-11-09T03:00:00:Z","depth":0,"parameterNumber":3,"parameterNumberName":"V-component_of_WINDS"},"data":[0,0,0,0,0,0,0,0,0,0,0,0,0,0,0,0,0,0,0,0,0,0,0,0,0,0,0,0,0,0,0,0,0,0,0,0,0,0,0,0,0,0,0,0,0,0,0,0,0,0,0,0,0,0,0,0,0,0,-7.7988,-7.7989,0,-7.8122,-7.8124,-7.8125,-7.8082,-7.8079,-7.8076,-7.8073,-7.8205,-7.8211,-7.8217,0,0,0,0,0,0,0,0,0,0,0,0,0,-7.7689,-7.7695,-7.7987,-7.7989,-7.7991,-7.8122,-7.8124,-7.8125,-7.8082,-7.8079,-7.8075,-7.8072,-7.8202,-7.821,-7.8217,0,0,0,0,0,0,0,0,0,0,0,0,0,-7.782,-7.7696,-7.7987,-7.7985,-7.7986,-7.8121,-7.8124,-7.8126,-7.8083,-7.8078,-7.8074,-7.807,-7.82,-7.8209,-7.8218,-7.8361,0,0,-7.8246,-7.825,0,0,0,0,0,0,0,0,-7.7813,-7.7831,-7.7984,-7.7986,-7.7987,-7.8081,-7.8066,-7.8205,-7.8084,-7.8046,-7.8073,-7.8068,-7.8166,-7.8178,-7.8213,-7.8368,-7.8373,-7.8247,-7.8253,-7.8257,-7.826,0,0,0,0,0,0,0,-7.7804,-7.7825,-7.804,-7.7986,-7.7988,-7.7976,-7.799,-7.8092,-7.8128,-7.8049,-7.8046,-7.8063,-7.8166,-7.8204,-7.8215,-7.8375,-7.8247,-7.8255,-7.8261,-7.8265,-7.8656,-7.8661,0,0,0,0,0,0,-7.7794,-7.7818,-7.8036,-7.8045,-7.7888,-7.7985,-7.8001,-7.8055,-7.8127,-7.8134,-7.8067,-7.806,-7.819,-7.8205,-7.822,-7.8394,-7.8257,-7.8266,-7.8271,-7.8651,-7.8657,-7.8662,0,0,0,0,0,0,-7.7788,-7.7814,-7.8031,-7.7931,-7.7957,-7.7995,-7.8056,-7.806,-7.8097,-7.8141,-7.8146,-7.8098,-7.8187,-7.8207,-7.8327,-7.8398,-7.827,-7.8278,-7.8646,-7.8653,-7.866,-7.8742,0,0,0,0,0,0,-7.778,-7.7812,-7.7868,-7.7932,-7.7963,-7.8138,-7.806,-7.8066,-7.8114,-7.8107,-7.8172,-7.8179,-7.8185,-7.8314,-7.8337,-7.8408,-7.8285,-7.8639,-7.8649,-7.8658,-7.8733,-7.8751,-7.8766,0,0,0,0,0,-7.7769,-7.7884,-7.7871,-7.7898,-7.8034,-7.8142,-7.8159,-7.8167,-7.812,-7.8176,-7.8204,-7.8177,-7.8386,-7.8327,-7.8352,-7.8427,-7.8635,-7.8646,-7.8657,-7.8725,-7.8747,-7.8766,0,0,0,0,0,0,-7.7824,-7.7892,-7.7879,-7.8018,-7.8075,-7.8134,-7.8205,-7.8189,-7.8259,-7.8249,-7.8253,-7.8268,-7.8393,-7.8422,-7.8354,-7.857,-7.8504,-7.852,-7.8547,-7.8568,-7.8585,-7.8575,-7.8293,0,0,0,0,0,-7.7853,-7.7937,-7.7991,-7.8109,-7.8138,-7.8167,-7.8214,-7.8216,-7.8274,-7.8297,-7.8334,-7.839,-7.8468,-7.852,-7.8594,-7.8737,-7.8751,-7.8801,-7.8818,-7.8831,-7.8846,-7.8925,-7.8948,-7.8698,-7.8698,-7.8698,0,0,-7.7912,-7.796,-7.8012,-7.8121,-7.8165,-7.8251,-7.8187,-7.828,-7.8344,-7.831,-7.8427,-7.8457,-7.8519,-7.8652,-7.8712,-7.868,-7.8918,-7.8845,-7.8856,-7.8863,-7.8938,-7.8962,-7.8983,-7.8706,-7.8704,-7.8703,0,0,-7.8065,-7.8109,-7.8213,-7.826,-7.8329,-7.8347,-7.8372,-7.8435,-7.8454,-7.8573,-7.855,-7.8624,-7.8759,-7.8806,-7.8847,-7.902,-7.8997,-7.9043,-7.9131,-7.9208,-7.9227,-7.9245,-7.9307,-7.933,-7.9057,-7.9058,-7.9058,0,-7.8129,-7.826,-7.8268,-7.8364,-7.8413,-7.8389,-7.8494,-7.8538,-7.8627,-7.866,-7.8623,-7.8794,-7.8834,-7.8979,-7.9021,-7.9055,-7.9084,-7.9036,-7.9224,-7.9242,-7.9258,-7.9318,-7.9341,-7.9063,-7.9062,-7.9062,-7.9061,0,-7.8336,-7.8427,-7.8502,-7.8592,-7.8649,-7.8749,-7.8771,-7.8828,-7.8825,-7.8847,-7.8968,-7.9016,-7.9101,-7.9135,-7.9131,-7.928,-7.9258,-7.9223,-7.9155,-7.9287,-7.9343,-7.9366,-7.907,-7.9069,-7.9067,-7.9066,0,0,-7.8526,-7.8621,-7.8648,-7.869,-7.8765,-7.8835,-7.8933,-7.9019,-7.9068,-7.913,-7.9213,-7.9329,-7.9298,-7.9345,-7.9346,-7.9414,-7.955,-7.9371,-7.9372,-7.9403,-7.9717,-7.9743,-7.977,-7.9535,-7.954,-7.9543,-7.9712,0,-7.8685,-7.8862,-7.8873,-7.9032,-7.9116,-7.9096,-7.9182,-7.9237,-7.9261,-7.9335,-7.936,-7.9444,-7.9396,-7.9424,-7.949,-7.9519,-7.9613,-7.9507,-7.9612,-7.9615,-7.9597,-7.9799,-7.9827,-7.9984,-7.9734,-7.9737,-7.974,0,-7.8894,-7.8967,-7.9135,-7.9201,-7.9237,-7.9314,-7.9395,-7.9466,-7.9528,-7.954,-7.9595,-7.9587,-7.9687,-7.9618,-7.9756,-7.9684,-7.9728,-7.9748,-7.9755,-7.9765,-7.9686,-7.9815,-8.0034,-8.0057,-7.9775,-7.9772,-7.9769,0,-7.9017,-7.9156,-7.9276,-7.9311,-7.939,-7.9446,-7.9481,-7.9539,-7.959,-7.966,-7.9693,-7.9773,-7.9816,-7.9877,-7.9891,-7.9839,-8.003,-7.9961,-8.0043,-8.0043,-8.0084,-8.0082,-8.0314,-8.0112,-8.0111,-8.0111,-8.011,0,-7.9194,-7.9298,-7.9332,-7.9406,-7.9522,-7.9534,-7.9648,-7.9679,-7.9731,-7.9809,-7.9796,-7.9869,-7.9883,-7.9959,-7.997,-8.0084,-8.0103,-8.0116,-8.0118,-8.0118,-8.0116,-8.0146,-8.0136,-8.0117,-8.0116,-8.0114,-8.0113,0,-7.9351,-7.9378,-7.9507,-7.9573,-7.9591,-7.9674,-7.973,-7.98,-7.9823,-7.9922,-7.9946,-7.9982,-8.0071,-8.0092,-8.0196,-8.0204,-8.0339,-8.033,-8.0319,-8.0319,-8.04,-8.0393,-8.066,-8.0696,-8.047,-8.0472,-8.0474,0,-7.9463,-7.9543,-7.9618,-7.9671,-7.971,-7.9794,-7.9848,-7.9862,-7.9918,-7.9996,-8.0057,-8.0145,-8.0217,-8.036,-8.0394,-8.0475,-8.0468,-8.0556,-8.048,-8.0478,-8.047,-8.0466,-8.0474,-8.0571,-8.0573,-8.0575,-8.0577,0,-7.9658,-7.9668,-7.9747,-7.9832,-7.9897,-7.9963,-8.0026,-8.0069,-8.0092,-8.0156,-8.0249,-8.0304,-8.0414,-8.0501,-8.0583,-8.0617,-8.0601,-8.0601,-8.0624,-8.0625,-8.0616,-8.0623,-8.036,-8.0594,-8.0593,-8.0591,-8.059,-8.059,-7.9796,-7.9868,-7.9933,-8.0021,-8.0071,-8.0131,-8.0201,-8.0234,-8.0313,-8.0405,-8.0408,-8.0509,-8.057,-8.0678,-8.0717,-8.0796,-8.0768,-8.0802,-8.0811,-8.0819,-8.0827,-8.0604,-8.081,-8.081,-8.081,-8.0809,-8.0809,0,-7.9992,-8.0034,-8.0115,-8.0206,-8.0276,-8.0257,-8.0327,-8.0386,-8.0476,-8.0535,-8.0607,-8.0714,-8.08,-8.0842,-8.0927,-8.0981,-8.0976,-8.1003,-8.0999,-8.1008,-8.0846,-8.0818,-8.1006,-8.1006,-8.1006,-8.1006,-8.1006,-8.1006,-8.0102,-8.0223,-8.0241,-8.0385,-8.0425,-8.0527,-8.0568,-8.0623,-8.0671,-8.0792,-8.0865,-8.0892,-8.0945,-8.1034,-8.1111,-8.1121,-8.1153,-8.1184,-8.119,-8.1039,-8.1019,-8.1,-8.0973,-8.1191,-8.1191,-8.1346,-8.1347,-8.1348]}]]